Data No, UTC Date,UTC Time,Latitude,Longitude,Course(deg),Temp(degC),Sal(psu)
521,2020/12/7,8:40,42-36.96N,141-37.08E,211,9.055,33.1281
522,2020/12/7,8:41,42-36.73N,141-36.90E,208,9.424,33.1685
523,2020/12/7,8:42,42-36.42N,141-36.85E,177,9.647,33.2456
524,2020/12/7,8:43,42-36.13N,141-36.93E,167,9.852,33.3992
525,2020/12/7,8:44,42-35.83N,141-37.03E,166,10.053,33.4832
526,2020/12/7,8:45,42-35.52N,141-37.13E,166,10.168,33.6373
527,2020/12/7,8:46,42-35.21N,141-37.23E,166,10.143,33.6576
528,2020/12/7,8:47,42-34.89N,141-37.33E,166,10.273,33.6751
529,2020/12/7,8:48,42-34.57N,141-37.43E,167,10.519,33.6765
530,2020/12/7,8:49,42-34.25N,141-37.53E,167,10.665,33.7242
531,2020/12/7,8:50,42-33.93N,141-37.62E,166,10.778,33.7699
532,2020/12/7,8:51,42-33.62N,141-37.79E,156,10.871,33.7752
533,2020/12/7,8:52,42-33.32N,141-37.99E,153,10.949,33.7918
534,2020/12/7,8:53,42-33.02N,141-38.20E,152,10.991,33.7729
535,2020/12/7,8:54,42-32.76N,141-38.39E,152,11.027,33.8052
536,2020/12/7,8:55,42-32.44N,141-38.61E,152,11.04,33.7914
537,2020/12/7,8:56,42-32.14N,141-38.82E,152,11.042,33.8016
538,2020/12/7,8:57,42-31.82N,141-39.05E,152,11.021,33.8128
539,2020/12/7,8:58,42-31.51N,141-39.27E,152,10.987,33.8113
540,2020/12/7,8:59,42-31.19N,141-39.49E,152,10.933,33.8215
541,2020/12/7,9:00,42-30.87N,141-39.72E,152,10.885,33.7885
542,2020/12/7,9:01,42-30.55N,141-39.95E,152,10.837,33.806
543,2020/12/7,9:02,42-30.21N,141-40.18E,152,10.797,33.7894
544,2020/12/7,9:03,42-29.89N,141-40.41E,152,10.794,33.7971
545,2020/12/7,9:04,42-29.56N,141-40.65E,150,10.903,33.7937
546,2020/12/7,9:05,42-29.24N,141-40.90E,151,11.223,33.8102
547,2020/12/7,9:06,42-28.90N,141-41.14E,151,11.343,33.8295
548,2020/12/7,9:07,42-28.56N,141-41.38E,152,11.474,33.8107
549,2020/12/7,9:08,42-28.23N,141-41.62E,151,11.568,33.8287
550,2020/12/7,9:09,42-27.90N,141-41.87E,149,11.68,33.8136
551,2020/12/7,9:10,42-27.66N,141-42.26E,119,11.72,33.8113
552,2020/12/7,9:11,42-27.49N,141-42.71E,117,11.748,33.8122
553,2020/12/7,9:12,42-27.31N,141-43.18E,116,11.756,33.8394
554,2020/12/7,9:13,42-27.14N,141-43.65E,115,11.775,33.8407
555,2020/12/7,9:14,42-26.97N,141-44.13E,116,11.777,33.8243
556,2020/12/7,9:15,42-26.78N,141-44.61E,117,11.758,33.8323
557,2020/12/7,9:16,42-26.60N,141-45.08E,118,11.734,33.822
558,2020/12/7,9:17,42-26.40N,141-45.55E,118,11.72,33.8186
559,2020/12/7,9:18,42-26.21N,141-46.01E,119,11.698,33.8049
560,2020/12/7,9:19,42-26.02N,141-46.48E,119,11.658,33.8109
561,2020/12/7,9:20,42-25.82N,141-46.96E,118,11.618,33.8317
562,2020/12/7,9:21,42-25.63N,141-47.42E,119,11.583,33.8103
563,2020/12/7,9:22,42-25.42N,141-47.89E,120,11.547,33.8062
564,2020/12/7,9:23,42-25.22N,141-48.34E,121,11.509,33.8104
565,2020/12/7,9:24,42-25.01N,141-48.80E,121,11.491,33.8102
566,2020/12/7,9:25,42-24.80N,141-49.27E,121,11.502,33.7873
567,2020/12/7,9:26,42-24.59N,141-49.72E,121,11.484,33.8
568,2020/12/7,9:27,42-24.38N,141-50.18E,121,11.443,33.7968
569,2020/12/7,9:28,42-24.17N,141-50.63E,121,11.416,33.7979
570,2020/12/7,9:29,42-23.95N,141-51.09E,122,11.384,33.8213
571,2020/12/7,9:30,42-23.73N,141-51.55E,122,11.357,33.8024
572,2020/12/7,9:31,42-23.52N,141-52.00E,122,11.304,33.8052
573,2020/12/7,9:32,42-23.30N,141-52.46E,122,11.274,33.7762
574,2020/12/7,9:33,42-23.09N,141-52.91E,122,11.34,33.7917
575,2020/12/7,9:34,42-22.87N,141-53.36E,123,11.386,33.795
576,2020/12/7,9:35,42-22.65N,141-53.82E,123,11.364,33.7886
577,2020/12/7,9:36,42-22.43N,141-54.27E,123,11.295,33.8101
578,2020/12/7,9:37,42-22.22N,141-54.74E,120,11.214,33.7979
579,2020/12/7,9:38,42-22.02N,141-55.20E,121,11.357,33.7944
580,2020/12/7,9:39,42-21.79N,141-55.69E,122,11.592,33.8076
581,2020/12/7,9:40,42-21.57N,141-56.16E,122,11.597,33.8119
582,2020/12/7,9:41,42-21.37N,141-56.59E,121,11.655,33.8159
583,2020/12/7,9:42,42-21.14N,141-57.10E,121,11.763,33.7942
584,2020/12/7,9:43,42-20.95N,141-57.53E,121,11.895,33.8209
585,2020/12/7,9:44,42-20.75N,141-57.99E,119,12.04,33.8057
586,2020/12/7,9:45,42-20.53N,141-58.49E,120,12.349,33.8299
587,2020/12/7,9:46,42-20.32N,141-58.95E,121,12.481,33.8404
588,2020/12/7,9:47,42-20.11N,141-59.42E,121,12.583,33.8242
589,2020/12/7,9:48,42-19.90N,141-59.87E,121,12.646,33.8224
590,2020/12/7,9:49,42-19.69N,142-00.33E,121,12.681,33.8063
591,2020/12/7,9:50,42-19.48N,142-00.80E,121,12.713,33.8364
592,2020/12/7,9:51,42-19.27N,142-01.26E,121,12.723,33.8382
593,2020/12/7,9:52,42-19.05N,142-01.73E,121,12.721,33.8136
594,2020/12/7,9:53,42-18.84N,142-02.18E,121,12.713,33.8311
595,2020/12/7,9:54,42-18.64N,142-02.65E,120,12.693,33.8196
596,2020/12/7,9:55,42-18.46N,142-03.05E,120,12.668,33.8081
597,2020/12/7,9:56,42-18.26N,142-03.52E,120,12.622,33.8096
598,2020/12/7,9:57,42-18.05N,142-03.99E,120,12.577,33.8198
599,2020/12/7,9:58,42-17.86N,142-04.45E,119,12.517,33.8254
600,2020/12/7,9:59,42-17.66N,142-04.92E,118,12.446,33.8244
601,2020/12/7,10:00,42-17.49N,142-05.42E,115,12.389,33.8133
602,2020/12/7,10:01,42-17.29N,142-05.91E,119,12.3,33.8137
603,2020/12/7,10:02,42-17.10N,142-06.36E,120,12.225,33.806
604,2020/12/7,10:03,42-16.87N,142-06.87E,121,12.201,33.8305
605,2020/12/7,10:04,42-16.66N,142-07.34E,121,12.127,33.8159
606,2020/12/7,10:05,42-16.48N,142-07.73E,121,12.083,33.8189
607,2020/12/7,10:06,42-16.28N,142-08.18E,120,12.09,33.8268
608,2020/12/7,10:07,42-16.07N,142-08.64E,121,12.074,33.8061
609,2020/12/7,10:08,42-15.87N,142-09.09E,121,12.005,33.8086
610,2020/12/7,10:09,42-15.67N,142-09.54E,121,11.924,33.7969
611,2020/12/7,10:10,42-15.47N,142-10.00E,119,11.774,33.8206
612,2020/12/7,10:11,42-15.29N,142-10.46E,117,12.022,33.8197
613,2020/12/7,10:12,42-15.08N,142-10.96E,119,12.234,33.8171
614,2020/12/7,10:13,42-14.88N,142-11.44E,119,12.321,33.8284
615,2020/12/7,10:14,42-14.69N,142-11.90E,119,12.371,33.8261
616,2020/12/7,10:15,42-14.49N,142-12.37E,119,12.388,33.818
617,2020/12/7,10:16,42-14.31N,142-12.82E,119,12.391,33.8124
618,2020/12/7,10:17,42-14.11N,142-13.29E,119,12.396,33.8257
619,2020/12/7,10:18,42-13.92N,142-13.74E,119,12.402,33.8355
620,2020/12/7,10:19,42-13.73N,142-14.19E,119,12.419,33.8191
621,2020/12/7,10:20,42-13.53N,142-14.66E,119,12.432,33.8211
622,2020/12/7,10:21,42-13.34N,142-15.11E,119,12.443,33.8209
623,2020/12/7,10:22,42-13.15N,142-15.56E,120,12.447,33.8048
624,2020/12/7,10:23,42-12.96N,142-16.01E,119,12.449,33.8086
625,2020/12/7,10:24,42-12.77N,142-16.47E,119,12.451,33.8032
626,2020/12/7,10:25,42-12.58N,142-16.92E,119,12.448,33.8276
627,2020/12/7,10:26,42-12.39N,142-17.35E,120,12.448,33.8252
628,2020/12/7,10:27,42-12.20N,142-17.79E,120,12.436,33.8198
629,2020/12/7,10:28,42-12.01N,142-18.22E,119,12.43,33.8092
630,2020/12/7,10:29,42-11.83N,142-18.65E,119,12.435,33.791
631,2020/12/7,10:30,42-11.64N,142-19.09E,119,12.45,33.8311
632,2020/12/7,10:31,42-11.47N,142-19.51E,119,12.458,33.8257
633,2020/12/7,10:32,42-11.31N,142-19.88E,119,12.464,33.8244
634,2020/12/7,10:33,42-11.12N,142-20.32E,118,12.467,33.8225
635,2020/12/7,10:34,42-10.95N,142-20.74E,119,12.465,33.8106
636,2020/12/7,10:35,42-10.77N,142-21.17E,119,12.464,33.8102
637,2020/12/7,10:36,42-10.59N,142-21.59E,119,12.457,33.7972
638,2020/12/7,10:37,42-10.41N,142-22.01E,119,12.443,33.8078
639,2020/12/7,10:38,42-10.23N,142-22.44E,119,12.439,33.8214
640,2020/12/7,10:39,42-10.06N,142-22.85E,119,12.432,33.8153
641,2020/12/7,10:40,42-09.87N,142-23.28E,119,12.425,33.8236
642,2020/12/7,10:41,42-09.69N,142-23.70E,119,12.407,33.8132
643,2020/12/7,10:42,42-09.48N,142-24.16E,121,12.387,33.7967
644,2020/12/7,10:43,42-09.30N,142-24.58E,120,12.378,33.8018
645,2020/12/7,10:44,42-09.14N,142-24.93E,120,12.366,33.7951
646,2020/12/7,10:45,42-08.96N,142-25.35E,119,12.337,33.8186
647,2020/12/7,10:46,42-08.79N,142-25.75E,119,12.305,33.8174
648,2020/12/7,10:47,42-08.62N,142-26.16E,120,12.22,33.8048
649,2020/12/7,10:48,42-08.44N,142-26.57E,121,12.127,33.823
650,2020/12/7,10:49,42-08.27N,142-26.97E,119,12.066,33.7881
651,2020/12/7,10:50,42-08.10N,142-27.40E,117,12.04,33.8116
652,2020/12/7,10:51,42-07.94N,142-27.81E,117,12.034,33.8023
653,2020/12/7,10:52,42-07.77N,142-28.24E,117,12.05,33.8159
654,2020/12/7,10:53,42-07.60N,142-28.68E,117,12.104,33.8308
655,2020/12/7,10:54,42-07.44N,142-29.10E,117,12.177,33.8183
656,2020/12/7,10:55,42-07.26N,142-29.54E,118,12.237,33.8108
657,2020/12/7,10:56,42-07.09N,142-29.96E,118,12.286,33.8099
658,2020/12/7,10:57,42-06.92N,142-30.40E,118,12.334,33.8041
659,2020/12/7,10:58,42-06.74N,142-30.84E,118,12.339,33.8093
660,2020/12/7,10:59,42-06.57N,142-31.26E,118,12.366,33.8051
661,2020/12/7,11:00,42-06.39N,142-31.70E,118,12.396,33.8158
662,2020/12/7,11:01,42-06.21N,142-32.13E,118,12.398,33.8002
663,2020/12/7,11:02,42-06.04N,142-32.56E,118,12.37,33.799
664,2020/12/7,11:03,42-05.86N,142-33.00E,120,12.344,33.7932
665,2020/12/7,11:04,42-05.67N,142-33.43E,120,12.314,33.7933
666,2020/12/7,11:05,42-05.49N,142-33.87E,119,12.305,33.8253
667,2020/12/7,11:06,42-05.32N,142-34.30E,118,12.289,33.8116
668,2020/12/7,11:07,42-05.13N,142-34.73E,120,12.25,33.8123
669,2020/12/7,11:08,42-04.95N,142-35.18E,119,12.224,33.8132
670,2020/12/7,11:09,42-04.77N,142-35.60E,118,12.202,33.792
671,2020/12/7,11:10,42-04.59N,142-36.04E,118,12.174,33.8019
672,2020/12/7,11:11,42-04.42N,142-36.47E,118,12.129,33.8057
673,2020/12/7,11:12,42-04.24N,142-36.90E,118,12.116,33.8105
674,2020/12/7,11:13,42-04.07N,142-37.34E,118,12.181,33.8287
675,2020/12/7,11:14,42-03.89N,142-37.76E,118,12.202,33.8226
676,2020/12/7,11:15,42-03.71N,142-38.19E,117,12.191,33.8121
677,2020/12/7,11:16,42-03.55N,142-38.62E,117,12.1,33.7965
678,2020/12/7,11:17,42-03.38N,142-39.05E,117,12.187,33.7947
679,2020/12/7,11:18,42-03.20N,142-39.49E,118,12.304,33.8245
680,2020/12/7,11:19,42-03.03N,142-39.92E,119,12.333,33.8227
681,2020/12/7,11:20,42-02.85N,142-40.36E,118,12.288,33.8086
682,2020/12/7,11:21,42-02.67N,142-40.79E,119,12.261,33.808
683,2020/12/7,11:22,42-02.47N,142-41.29E,118,12.245,33.7879
684,2020/12/7,11:23,42-02.29N,142-41.74E,119,12.215,33.7982
685,2020/12/7,11:24,42-02.11N,142-42.17E,118,12.184,33.7939
686,2020/12/7,11:25,42-01.94N,142-42.62E,117,12.111,33.8221
687,2020/12/7,11:26,42-01.76N,142-43.05E,118,12.09,33.8224
688,2020/12/7,11:27,42-01.58N,142-43.48E,118,12.094,33.8162
689,2020/12/7,11:28,42-01.42N,142-43.86E,119,12.092,33.8244
690,2020/12/7,11:29,42-01.26N,142-44.28E,117,12.095,33.8103
691,2020/12/7,11:30,42-01.08N,142-44.72E,118,12.095,33.8082
692,2020/12/7,11:31,42-00.91N,142-45.15E,118,12.115,33.8048
693,2020/12/7,11:32,42-00.73N,142-45.58E,119,12.141,33.8141
694,2020/12/7,11:33,42-00.55N,142-46.01E,119,12.147,33.8353
695,2020/12/7,11:34,42-00.37N,142-46.44E,119,12.162,33.8386
696,2020/12/7,11:35,42-00.19N,142-46.88E,118,12.168,33.8279
697,2020/12/7,11:36,42-00.01N,142-47.31E,118,12.155,33.8182
698,2020/12/7,11:37,41-59.83N,142-47.74E,119,12.145,33.826
699,2020/12/7,11:38,41-59.65N,142-48.18E,117,12.146,33.8077
700,2020/12/7,11:39,41-59.47N,142-48.61E,118,12.139,33.8144
701,2020/12/7,11:40,41-59.29N,142-49.05E,119,12.127,33.8323
702,2020/12/7,11:41,41-59.11N,142-49.48E,119,12.114,33.8202
703,2020/12/7,11:42,41-58.92N,142-49.92E,119,12.104,33.822
704,2020/12/7,11:43,41-58.74N,142-50.37E,118,12.098,33.7978
705,2020/12/7,11:44,41-58.56N,142-50.80E,118,12.096,33.8113
706,2020/12/7,11:45,41-58.37N,142-51.24E,119,12.084,33.8024
707,2020/12/7,11:46,41-58.20N,142-51.67E,118,12.117,33.8044
708,2020/12/7,11:47,41-58.02N,142-52.12E,119,12.119,33.8105
709,2020/12/7,11:48,41-57.83N,142-52.56E,118,12.102,33.826
710,2020/12/7,11:49,41-57.65N,142-52.99E,120,12.106,33.8296
711,2020/12/7,11:50,41-57.45N,142-53.44E,119,12.12,33.807
712,2020/12/7,11:51,41-57.27N,142-53.88E,120,12.121,33.8212
713,2020/12/7,11:52,41-57.08N,142-54.32E,120,12.12,33.8289
714,2020/12/7,11:53,41-56.88N,142-54.77E,120,12.117,33.8122
715,2020/12/7,11:54,41-56.68N,142-55.21E,119,12.112,33.8124
716,2020/12/7,11:55,41-56.50N,142-55.65E,119,12.108,33.8224
717,2020/12/7,11:56,41-56.32N,142-56.09E,120,12.109,33.8361
718,2020/12/7,11:57,41-56.12N,142-56.53E,120,12.11,33.83
719,2020/12/7,11:58,41-55.93N,142-56.97E,121,12.12,33.8205
720,2020/12/7,11:59,41-55.74N,142-57.40E,120,12.121,33.8149
721,2020/12/7,12:00,41-55.54N,142-57.85E,120,12.117,33.8078
722,2020/12/7,12:01,41-55.34N,142-58.28E,121,12.113,33.8079
723,2020/12/7,12:02,41-55.15N,142-58.72E,119,12.12,33.8054
724,2020/12/7,12:03,41-54.96N,142-59.17E,120,12.126,33.8283
725,2020/12/7,12:04,41-54.77N,142-59.60E,119,12.121,33.8242
726,2020/12/7,12:05,41-54.57N,143-00.04E,121,12.124,33.8321
727,2020/12/7,12:06,41-54.39N,143-00.47E,122,12.14,33.8143
728,2020/12/7,12:07,41-54.18N,143-00.91E,121,12.156,33.8221
729,2020/12/7,12:08,41-53.98N,143-01.35E,121,12.117,33.8006
730,2020/12/7,12:09,41-53.78N,143-01.77E,122,12.068,33.8129
731,2020/12/7,12:10,41-53.58N,143-02.20E,121,12.071,33.8165
732,2020/12/7,12:11,41-53.39N,143-02.63E,121,12.042,33.8158
733,2020/12/7,12:12,41-53.19N,143-03.06E,122,11.981,33.8293
734,2020/12/7,12:13,41-52.99N,143-03.49E,121,11.85,33.8089
735,2020/12/7,12:14,41-52.80N,143-03.92E,121,11.661,33.7944
736,2020/12/7,12:15,41-52.60N,143-04.35E,121,11.378,33.8036
737,2020/12/7,12:16,41-52.41N,143-04.79E,120,11.015,33.766
738,2020/12/7,12:17,41-52.22N,143-05.21E,120,10.901,33.752
739,2020/12/7,12:18,41-52.03N,143-05.66E,119,10.8,33.7689
740,2020/12/7,12:19,41-51.85N,143-06.08E,120,10.796,33.7621
741,2020/12/7,12:20,41-51.66N,143-06.51E,121,10.799,33.7536
742,2020/12/7,12:21,41-51.46N,143-06.94E,120,10.726,33.7173
743,2020/12/7,12:22,41-51.26N,143-07.38E,120,10.486,33.7266
744,2020/12/7,12:23,41-51.08N,143-07.81E,119,10.164,33.6801
745,2020/12/7,12:24,41-50.90N,143-08.24E,119,9.881,33.6292
746,2020/12/7,12:25,41-50.72N,143-08.67E,119,10.09,33.5899
747,2020/12/7,12:26,41-50.52N,143-09.17E,118,10.216,33.5977
748,2020/12/7,12:27,41-50.36N,143-09.54E,118,10.3,33.6374
749,2020/12/7,12:28,41-50.20N,143-09.96E,118,10.343,33.6346
750,2020/12/7,12:29,41-50.02N,143-10.39E,119,10.584,33.6598
751,2020/12/7,12:30,41-49.84N,143-10.82E,118,10.703,33.684
752,2020/12/7,12:31,41-49.66N,143-11.26E,119,10.744,33.7007
753,2020/12/7,12:32,41-49.48N,143-11.69E,119,10.732,33.7103
754,2020/12/7,12:33,41-49.29N,143-12.13E,118,10.597,33.7243
755,2020/12/7,12:34,41-49.12N,143-12.56E,118,10.549,33.7215
756,2020/12/7,12:35,41-48.93N,143-12.99E,118,10.505,33.6914
757,2020/12/7,12:36,41-48.77N,143-13.44E,113,10.407,33.6777
758,2020/12/7,12:37,41-48.65N,143-13.90E,105,10.336,33.6674
759,2020/12/7,12:38,41-48.57N,143-14.39E,100,10.29,33.6352
760,2020/12/7,12:39,41-48.52N,143-14.87E,96,10.264,33.6261
761,2020/12/7,12:40,41-48.51N,143-15.35E,90,10.272,33.6174
762,2020/12/7,12:41,41-48.53N,143-15.86E,83,10.22,33.6287
763,2020/12/7,12:42,41-48.59N,143-16.33E,79,10.184,33.6149
764,2020/12/7,12:43,41-48.67N,143-16.82E,75,10.132,33.6003
765,2020/12/7,12:44,41-48.78N,143-17.28E,73,10.029,33.5998
766,2020/12/7,12:45,41-48.89N,143-17.75E,73,9.869,33.5726
767,2020/12/7,12:46,41-48.98N,143-18.23E,74,9.787,33.56
768,2020/12/7,12:47,41-49.08N,143-18.69E,74,9.755,33.5334
769,2020/12/7,12:48,41-49.19N,143-19.17E,72,9.74,33.5341
770,2020/12/7,12:49,41-49.32N,143-19.61E,65,9.736,33.5216
771,2020/12/7,12:50,41-49.49N,143-20.03E,59,9.749,33.5348
772,2020/12/7,12:51,41-49.72N,143-20.47E,52,9.76,33.5217
773,2020/12/7,12:52,41-49.92N,143-20.77E,47,9.745,33.5336
774,2020/12/7,12:53,41-50.18N,143-21.11E,42,9.73,33.5068
775,2020/12/7,12:54,41-50.44N,143-21.40E,40,9.726,33.5275
776,2020/12/7,12:55,41-50.70N,143-21.71E,41,9.707,33.5285
777,2020/12/7,12:56,41-50.97N,143-22.02E,41,9.703,33.5123
778,2020/12/7,12:57,41-51.23N,143-22.33E,41,9.695,33.5067
779,2020/12/7,12:58,41-51.50N,143-22.64E,41,9.68,33.5338
780,2020/12/7,12:59,41-51.75N,143-22.97E,47,9.678,33.5086
781,2020/12/7,13:00,41-52.01N,143-23.28E,40,9.664,33.5095
782,2020/12/7,13:01,41-52.28N,143-23.57E,38,9.618,33.5298
783,2020/12/7,13:02,41-52.55N,143-23.85E,37,9.526,33.52
784,2020/12/7,13:03,41-52.83N,143-24.13E,37,9.484,33.5027
785,2020/12/7,13:04,41-53.09N,143-24.42E,39,9.462,33.4693
786,2020/12/7,13:05,41-53.36N,143-24.70E,35,9.476,33.4746
787,2020/12/7,13:06,41-53.65N,143-24.94E,33,9.505,33.4654
788,2020/12/7,13:07,41-53.91N,143-25.21E,38,9.518,33.4721
789,2020/12/7,13:08,41-54.17N,143-25.51E,41,9.513,33.4831
790,2020/12/7,13:09,41-54.43N,143-25.78E,35,9.521,33.4851
791,2020/12/7,13:10,41-54.70N,143-26.02E,32,9.527,33.4784
792,2020/12/7,13:11,41-54.98N,143-26.28E,37,9.535,33.4995
793,2020/12/7,13:12,41-55.27N,143-26.61E,40,9.559,33.48
794,2020/12/7,13:13,41-55.53N,143-26.88E,36,9.586,33.5011
795,2020/12/7,13:15,41-56.26N,143-27.59E,37,---,33.4997
796,2020/12/7,13:16,41-56.30N,143-27.63E,37,9.633,33.4877
797,2020/12/7,13:17,41-56.57N,143-27.90E,36,9.634,33.494
798,2020/12/7,13:18,41-56.84N,143-28.16E,35,9.621,33.4942
799,2020/12/7,13:19,41-57.11N,143-28.42E,35,9.603,33.5097
800,2020/12/7,13:20,41-57.46N,143-28.77E,36,9.59,33.4848
801,2020/12/7,13:24,41-58.76N,143-30.03E,36,9.505,33.4818
802,2020/12/7,13:25,41-58.77N,143-30.04E,35,9.505,---
803,2020/12/7,13:26,41-59.05N,143-30.30E,34,9.497,33.4586
804,2020/12/7,13:27,41-59.33N,143-30.56E,35,9.507,33.4633
805,2020/12/7,13:28,41-59.60N,143-30.82E,35,9.512,33.4545
806,2020/12/7,13:29,41-59.88N,143-31.08E,35,9.527,33.4668
807,2020/12/7,13:30,42-00.15N,143-31.33E,35,9.538,33.4516
808,2020/12/7,13:31,42-00.39N,143-31.55E,34,9.539,33.454
809,2020/12/7,13:32,42-00.67N,143-31.82E,34,9.534,33.4676
810,2020/12/7,13:33,42-00.94N,143-32.07E,34,9.523,33.474
811,2020/12/7,13:34,42-01.22N,143-32.32E,34,9.498,33.4561
812,2020/12/7,13:35,42-01.57N,143-32.64E,33,9.477,33.4877
813,2020/12/7,13:36,42-01.77N,143-32.82E,33,9.483,33.4652
814,2020/12/7,13:37,42-02.05N,143-33.07E,34,9.485,33.4802
815,2020/12/7,13:38,42-02.33N,143-33.32E,33,9.469,33.4626
816,2020/12/7,13:39,42-02.60N,143-33.56E,33,9.463,33.4864
817,2020/12/7,13:40,42-02.90N,143-33.83E,33,9.474,33.468
818,2020/12/7,13:41,42-03.15N,143-34.06E,34,9.503,33.4681
819,2020/12/7,13:42,42-03.43N,143-34.32E,35,9.515,33.4706
820,2020/12/7,13:43,42-03.72N,143-34.59E,34,9.519,33.4981
821,2020/12/7,13:44,42-04.01N,143-34.87E,35,9.524,33.4953
822,2020/12/7,13:45,42-04.27N,143-35.12E,35,9.527,33.4891
823,2020/12/7,13:46,42-04.56N,143-35.36E,31,9.508,33.4975
824,2020/12/7,13:47,42-04.85N,143-35.58E,29,9.477,33.4893
825,2020/12/7,13:49,42-05.67N,143-36.20E,29,9.425,33.5177
826,2020/12/7,13:50,42-05.73N,143-36.24E,29,9.423,33.4725
827,2020/12/7,13:51,42-06.01N,143-36.46E,29,9.418,33.4705
828,2020/12/7,13:52,42-06.31N,143-36.68E,28,9.417,33.4705
829,2020/12/7,13:53,42-06.61N,143-36.89E,27,9.432,33.4791
830,2020/12/7,13:54,42-06.87N,143-37.06E,27,9.436,33.5064
831,2020/12/7,13:55,42-07.17N,143-37.27E,27,9.426,33.5036
832,2020/12/7,13:56,42-07.46N,143-37.47E,27,9.396,33.5128
833,2020/12/7,13:57,42-07.76N,143-37.69E,27,9.382,33.5071
834,2020/12/7,13:58,42-08.06N,143-37.90E,27,9.381,33.4974
835,2020/12/7,13:59,42-08.35N,143-38.10E,27,9.381,33.4916
836,2020/12/7,14:00,42-08.65N,143-38.31E,27,9.379,33.4803
837,2020/12/7,14:01,42-08.97N,143-38.54E,27,9.378,33.4738
838,2020/12/7,14:02,42-09.26N,143-38.73E,27,9.399,33.4849
839,2020/12/7,14:03,42-09.56N,143-38.93E,27,9.433,33.4756
840,2020/12/7,14:04,42-09.84N,143-39.13E,27,9.473,33.477
841,2020/12/7,14:05,42-10.13N,143-39.33E,27,9.504,33.4989
842,2020/12/7,14:06,42-10.41N,143-39.53E,27,9.51,33.5059
843,2020/12/7,14:07,42-10.65N,143-39.70E,27,9.515,33.5046
844,2020/12/7,14:08,42-10.94N,143-39.90E,27,9.521,33.5001
845,2020/12/7,14:09,42-11.22N,143-40.09E,27,9.522,33.5048
846,2020/12/7,14:10,42-11.51N,143-40.29E,27,9.52,33.4904
847,2020/12/7,14:11,42-11.79N,143-40.49E,27,9.527,33.4922
848,2020/12/7,14:12,42-12.07N,143-40.71E,35,9.53,33.4749
849,2020/12/7,14:13,42-12.29N,143-41.03E,52,9.523,33.4957
850,2020/12/7,14:14,42-12.47N,143-41.37E,54,9.524,33.4808
851,2020/12/7,14:15,42-12.66N,143-41.72E,53,9.517,33.4999
852,2020/12/7,14:16,42-12.85N,143-42.06E,53,9.516,33.4981
853,2020/12/7,14:17,42-13.04N,143-42.41E,54,9.526,33.5078
854,2020/12/7,14:18,42-13.24N,143-42.75E,49,9.552,33.4952
855,2020/12/7,14:19,42-13.47N,143-43.05E,41,9.559,33.5052
856,2020/12/7,14:20,42-13.72N,143-43.31E,36,9.61,33.4942
857,2020/12/7,14:21,42-13.98N,143-43.56E,35,9.674,33.5174
858,2020/12/7,14:22,42-14.25N,143-43.81E,34,9.789,33.5209
859,2020/12/7,14:23,42-14.52N,143-44.07E,35,9.945,33.5301
860,2020/12/7,14:24,42-14.78N,143-44.32E,34,9.896,33.5757
861,2020/12/7,14:25,42-15.06N,143-44.57E,34,9.878,33.5693
862,2020/12/7,14:26,42-15.32N,143-44.81E,33,10.02,33.5682
863,2020/12/7,14:27,42-15.59N,143-45.06E,34,10.039,33.5846
864,2020/12/7,14:28,42-15.86N,143-45.32E,35,10.023,33.5959
865,2020/12/7,14:29,42-16.13N,143-45.56E,35,9.904,33.6076
866,2020/12/7,14:30,42-16.40N,143-45.82E,35,9.836,33.5764
867,2020/12/7,14:31,42-16.66N,143-46.07E,34,9.806,33.554
868,2020/12/7,14:32,42-16.93N,143-46.32E,34,9.687,33.5505
869,2020/12/7,14:33,42-17.20N,143-46.58E,35,9.641,33.5479
870,2020/12/7,14:34,42-17.45N,143-46.83E,35,9.564,33.521
871,2020/12/7,14:35,42-17.72N,143-47.09E,35,9.545,33.5066
872,2020/12/7,14:36,42-17.98N,143-47.33E,34,9.53,33.4827
873,2020/12/7,14:37,42-18.25N,143-47.58E,35,9.523,33.4887
874,2020/12/7,14:38,42-18.52N,143-47.84E,35,9.485,33.4527
875,2020/12/7,14:39,42-18.78N,143-48.09E,35,9.441,33.4694
876,2020/12/7,14:40,42-19.05N,143-48.34E,34,9.406,33.4497
877,2020/12/7,14:41,42-19.31N,143-48.59E,35,9.395,33.4397
878,2020/12/7,14:42,42-19.58N,143-48.84E,34,9.39,33.4388
879,2020/12/7,14:43,42-19.85N,143-49.09E,34,9.386,33.4609
880,2020/12/7,14:44,42-20.11N,143-49.34E,34,9.4,33.4537
881,2020/12/7,14:45,42-20.38N,143-49.59E,34,9.449,33.45
882,2020/12/7,14:46,42-20.64N,143-49.83E,34,9.478,33.4601
883,2020/12/7,14:47,42-20.91N,143-50.08E,34,9.515,33.4531
884,2020/12/7,14:48,42-21.18N,143-50.34E,34,9.546,33.464
885,2020/12/7,14:49,42-21.45N,143-50.58E,34,9.567,33.4463
886,2020/12/7,14:50,42-21.72N,143-50.83E,34,9.577,33.444
887,2020/12/7,14:51,42-21.98N,143-51.07E,34,9.582,33.4493
888,2020/12/7,14:52,42-22.24N,143-51.32E,34,9.573,33.4468
889,2020/12/7,14:53,42-22.51N,143-51.57E,34,9.567,33.4431
890,2020/12/7,14:54,42-22.77N,143-51.81E,34,9.566,33.4682
891,2020/12/7,14:55,42-23.04N,143-52.05E,34,9.546,33.4536
892,2020/12/7,14:56,42-23.30N,143-52.29E,34,9.508,33.4654
893,2020/12/7,14:57,42-23.56N,143-52.53E,33,9.479,33.4611
894,2020/12/7,14:58,42-23.83N,143-52.77E,33,9.465,33.4541
895,2020/12/7,14:59,42-24.09N,143-53.01E,33,9.483,33.447
896,2020/12/7,15:00,42-24.36N,143-53.25E,33,9.507,33.4515
897,2020/12/7,15:01,42-24.62N,143-53.48E,33,9.53,33.4344
898,2020/12/7,15:02,42-24.89N,143-53.72E,32,9.556,33.4604
899,2020/12/7,15:03,42-25.16N,143-53.95E,32,9.569,33.4596
900,2020/12/7,15:04,42-25.47N,143-54.21E,32,9.576,33.4653
901,2020/12/7,15:05,42-25.73N,143-54.45E,33,9.579,33.4567
902,2020/12/7,15:06,42-25.96N,143-54.65E,32,9.555,33.4885
903,2020/12/7,15:07,42-26.22N,143-54.89E,33,9.547,33.463
904,2020/12/7,15:08,42-26.49N,143-55.13E,32,9.551,33.4671
905,2020/12/7,15:09,42-26.76N,143-55.36E,33,9.564,33.4663
906,2020/12/7,15:10,42-27.03N,143-55.60E,32,9.551,33.4603
907,2020/12/7,15:11,42-27.31N,143-55.84E,33,9.517,33.4559
908,2020/12/7,15:12,42-27.58N,143-56.07E,33,9.481,33.4373
909,2020/12/7,15:13,42-27.86N,143-56.31E,32,9.477,33.424
910,2020/12/7,15:14,42-28.12N,143-56.54E,32,9.493,33.4328
911,2020/12/7,15:15,42-28.40N,143-56.79E,33,9.505,33.4349
912,2020/12/7,15:16,42-28.67N,143-57.03E,33,9.512,33.4264
913,2020/12/7,15:17,42-28.94N,143-57.26E,31,9.522,33.4459
914,2020/12/7,15:18,42-29.22N,143-57.49E,30,9.54,33.4476
915,2020/12/7,15:19,42-29.50N,143-57.71E,29,9.549,33.4653
916,2020/12/7,15:20,42-29.78N,143-57.93E,29,9.607,33.468
917,2020/12/7,15:21,42-30.07N,143-58.14E,28,9.626,33.4799
918,2020/12/7,15:22,42-30.35N,143-58.35E,27,9.631,33.4788
919,2020/12/7,15:23,42-30.65N,143-58.56E,27,9.612,33.4752
920,2020/12/7,15:24,42-30.93N,143-58.76E,27,9.606,33.466